Portada
METAR-TAF:

METAR-TAF

Aeroports :

Charleston, Carolina del Sud, Estats Units d'Amèrica

latitud: 32-42-03N, longitud: 080-00-10W, altitud: 5 m

Observació

L'informe es va fer fa 20 minuts, a les 21:15 UTC
Vent 7 kt del Sud
Temperatura 29°C
Humitat 66%
Pressió 1017 hPa
Visibilitat: 12.9 km
Cel clar

METAR: KJZI 242115Z AUTO 19007KT 8SM CLR 29/22 A3004 RMK AO2

Hora: 17:35 (21:35 UTC)


TAF: manca

Observacions i pronòstics meteorològics de més de 4000 aeroports (METAR i TAF).

Les estacions disponibles són els punts grocs i vermells al mapa.

Posi el ratolí al punt desitjat per veure el nom de l'estació.

Feu clic per veure les observacions i els pronòstics meteorològics.

Per canviar el mapa: feu clic els botons verds amb una creu de color negre per apropar; al botó verd amb un guió per allunyar la imatge; o en les fletxes verdes per a mapes adjacents.


METAR-TAF: